Probability
0 0 0 0 0 0 0 0 0 0 0 0 0 0 0 0 0 0 0 0 0 0 0 1 2 2 2 1 0 1 1 2 3 3 3 3 1 0 0 0 0 0 0 0
0 0 0 0 0 0 0 0 0 0 0 0 0 0 0 0 0 0 0 0 0 0 0 1 1 2 2 2 1 1 1 2 2 3 3 2 2 1 1 0 0 0 0 0
0 0 0 0 0 0 0 0 0 0 0 0 0 0 0 0 0 0 0 0 0 0 0 0 0 1 2 3 2 2 2 1 1 2 2 1 2 2 1 1 1 1 1 0
0 0 0 0 0 0 0 0 0 0 0 0 0 0 0 0 0 0 0 0 0 0 0 0 0 0 1 3 4 3 2 1 1 2 2 1 1 1 1 1 2 2 1 1
0 0 0 0 0 0 0 0 0 0 0 0 0 0 0 0 0 0 0 0 0 0 0 0 0 0 1 3 4 4 3 2 2 2 3 2 1 0 0 1 3 3 3 2
0 0 0 0 0 0 0 0 0 0 0 0 0 0 0 0 0 0 0 0 0 0 1 1 1 2 2 4 4 4 3 3 3 3 3 1 1 0 0 1 2 2 3 3
0 0 0 0 0 0 0 0 0 0 0 0 0 0 0 0 0 0 0 0 0 0 1 2 2 3 5 5 5 4 4 5 4 4 2 1 0 0 0 1 1 1 1 2
0 0 0 0 0 0 0 0 0 0 0 0 0 0 0 0 0 0 0 0 0 0 1 2 3 5 6 6 6 4 5 6 5 3 2 0 0 0 0 0 0 0 1 2
0 0 0 0 0 0 0 0 0 0 0 0 0 0 0 0 0 1 1 1 1 1 1 2 4 5 6 6 6 5 6 6 4 2 2 1 0 0 0 0 0 0 0 1
0 0 0 0 0 0 0 0 1 1 0 0 0 0 0 0 0 1 2 2 2 2 2 3 4 5 6 6 6 6 6 6 5 3 2 1 0 0 0 0 0 0 0 0
0 0 0 0 0 0 1 1 1 1 0 0 0 0 0 0 0 1 1 1 1 1 1 2 3 4 4 5 6 6 5 5 5 3 1 1 1 0 0 0 0 0 0 0
0 0 0 0 0 0 0 0 1 1 0 0 0 0 0 0 1 2 2 1 0 0 0 1 3 3 3 4 4 4 4 4 3 2 0 0 1 0 0 1 1 0 0 0
0 0 0 0 0 0 0 0 0 0 0 0 0 0 0 0 1 2 2 1 0 0 1 2 3 3 3 3 3 3 3 3 2 2 2 2 2 1 1 1 1 0 0 0
0 0 0 0 0 0 0 0 0 0 0 0 0 0 0 0 0 1 1 0 0 0 2 3 3 3 4 3 3 3 3 3 3 3 4 4 4 2 1 1 1 0 0 0
0 0 0 0 0 0 0 0 0 0 0 0 0 0 0 0 0 0 0 0 0 0 1 2 4 4 5 4 4 3 3 3 3 3 4 4 4 3 1 1 1 0 0 0
0 0 0 0 0 0 0 0 0 0 0 0 0 0 0 0 0 0 0 1 1 1 1 2 4 5 6 6 4 2 2 3 3 3 3 3 3 3 2 1 1 1 1 1
0 0 0 0 0 0 0 0 0 0 0 0 0 0 0 0 0 0 0 1 2 2 2 2 3 5 6 5 4 2 2 3 3 3 2 3 3 4 4 3 2 1 1 1
0 0 0 0 0 0 0 0 0 0 0 0 0 0 0 0 0 0 0 1 1 1 2 2 3 4 4 3 2 1 2 3 3 3 3 2 2 3 5 5 4 2 1 1
0 0 0 0 0 0 0 0 0 0 0 0 0 0 0 0 0 0 0 0 0 0 1 1 3 3 3 2 1 1 3 3 3 3 3 3 2 3 4 4 5 4 2 1
0 0 0 0 0 0 0 0 0 0 0 0 0 0 0 0 0 0 0 0 0 1 1 1 2 3 3 2 1 2 3 3 3 3 3 3 3 3 3 3 4 3 2 1
0 0 0 0 0 0 0 0 0 0 0 0 0 0 0 0 0 0 0 0 0 1 1 2 3 3 3 3 3 3 3 3 3 4 4 3 3 3 3 3 3 2 1 0
0 0 0 0 0 0 0 0 0 0 0 0 0 0 0 0 0 0 0 0 0 1 1 2 3 3 3 3 3 3 3 3 4 4 4 4 3 3 3 3 3 2 1 1
0 0 0 0 0 0 0 0 0 0 0 0 0 0 0 0 0 0 0 0 0 0 0 1 3 3 3 3 3 3 3 3 3 4 4 3 3 3 3 3 3 2 2 2
0 0 0 0 0 0 0 0 0 0 0 0 0 0 0 0 0 0 0 0 0 0 0 1 2 2 2 2 2 3 3 3 3 3 3 2 1 1 2 2 2 2 1 1
0 0 0 0 0 0 0 0 0 0 0 0 1 0 0 0 0 0 0 0 0 0 0 0 1 1 1 1 1 1 2 2 2 2 1 1 0 0 1 1 1 2 1 1
0 0 0 0 0 0 0 0 0 0 0 0 1 0 0 0 0 0 0 1 1 1 0 0 0 0 0 0 0 0 1 1 1 1 0 0 0 0 0 0 1 1 1 0
Wind_Speed
6 4 2 2 3 3 2 2 2 2 3 3 3 4 5 6 5 5 5 5 6 6 5 4 4 4 3 3 3 4 4 4 4 2 2 2 1 1 2 2 2 2 2 3
3 2 1 1 2 3 4 3 2 2 3 3 4 5 6 7 6 4 5 5 6 6 7 5 4 4 3 3 3 4 3 4 4 3 2 2 2 1 2 1 2 2 2 2
2 2 1 2 3 3 3 3 2 2 4 6 5 4 6 8 7 5 4 4 5 6 7 7 5 4 3 3 3 3 4 4 4 4 2 2 2 1 2 2 1 1 2 2
2 2 3 3 2 3 3 2 3 4 4 3 6 3 5 8 8 7 5 4 4 5 6 7 5 4 3 2 3 3 3 4 4 4 3 3 2 2 2 2 2 1 2 3
2 3 3 3 2 3 3 3 5 6 5 6 7 4 3 8 7 7 6 5 4 5 6 7 6 4 4 3 3 2 3 3 3 4 4 2 2 2 2 2 3 2 2 2
3 1 2 2 2 2 3 6 8 8 5 6 6 4 2 4 5 6 7 6 5 5 6 7 6 5 4 4 3 2 3 3 3 3 4 3 3 3 2 2 2 2 2 1
5 5 3 2 3 3 5 4 3 3 4 3 3 2 2 5 4 4 6 6 6 5 6 6 7 6 4 5 4 2 3 3 2 3 4 3 4 3 3 3 2 2 1 1
4 5 5 3 3 3 5 4 3 4 3 2 2 2 5 7 5 5 5 5 5 5 5 5 6 6 5 5 4 3 3 3 3 3 3 4 3 2 2 2 3 2 2 2
3 2 5 4 3 4 4 4 5 5 7 4 2 4 6 5 6 5 5 5 5 5 5 5 5 6 5 5 4 4 4 4 4 3 3 3 3 2 2 2 2 2 2 2
5 3 4 5 4 6 6 6 4 3 4 4 1 3 4 6 5 5 5 4 4 4 5 5 5 5 4 4 3 3 3 4 3 2 2 2 2 2 3 2 2 2 2 2
7 5 4 5 5 4 4 4 3 3 4 3 2 2 4 5 5 4 4 4 4 4 4 4 5 4 4 4 3 2 2 3 3 3 3 3 2 2 3 2 2 2 2 3
4 5 5 5 4 2 3 4 3 2 4 3 2 1 3 5 5 4 4 4 4 4 4 4 5 4 4 3 3 2 2 2 2 2 3 3 3 2 2 2 2 2 2 2
5 5 5 3 4 4 4 4 4 4 4 4 3 1 3 5 5 4 3 4 4 4 4 4 4 4 4 3 3 2 2 2 2 2 2 2 3 3 2 2 2 1 1 2
4 7 6 5 3 3 4 5 5 5 4 5 4 2 1 1 3 4 4 4 4 4 4 4 4 3 3 3 3 3 2 2 2 2 2 1 1 2 2 1 1 1 1 1
5 7 8 7 6 6 6 6 7 7 7 7 5 3 1 0 2 4 3 3 3 3 3 4 4 3 3 3 3 3 3 3 3 3 2 2 1 1 1 1 1 1 1 1
5 7 9 9 9 9 10 8 8 8 7 7 6 4 1 1 3 3 2 3 3 2 2 3 3 3 4 4 4 4 4 4 3 3 3 2 2 1 2 2 2 2 2 2
6 8 9 9 9 9 9 6 6 6 5 6 5 2 1 2 2 2 3 2 2 1 1 1 2 3 3 3 3 4 4 4 4 4 3 3 2 2 2 2 2 2 2 2
8 9 6 8 9 10 2 1 2 2 2 3 3 2 2 2 2 2 3 2 2 2 1 0 0 1 2 2 2 3 3 3 3 3 2 2 2 2 2 2 3 3 2 2
7 7 6 6 8 7 3 0 1 2 3 2 2 2 2 1 1 2 3 3 2 2 1 0 1 0 1 2 2 3 3 3 3 2 2 2 2 2 2 2 3 3 2 2
6 6 6 6 8 7 1 3 2 3 2 3 2 2 2 2 1 1 3 3 3 2 1 1 1 1 0 1 2 2 3 3 3 3 2 2 2 2 3 3 3 2 2 3
6 7 8 8 9 4 2 1 1 2 2 4 4 3 2 2 2 2 2 2 2 2 2 2 1 1 1 1 1 2 2 3 3 3 3 2 2 3 3 3 2 2 2 2
6 5 6 7 8 3 3 1 2 3 4 3 4 4 4 4 3 3 2 2 2 2 2 2 1 1 1 1 1 1 1 1 1 2 2 3 3 3 3 2 2 2 2 3
5 4 3 3 1 2 2 3 3 4 4 4 4 4 3 2 2 2 2 1 1 1 1 1 2 2 1 1 1 2 2 1 2 2 2 2 3 3 2 2 2 2 2 3
5 3 4 4 2 1 1 2 3 4 5 4 4 3 3 2 2 2 2 2 2 2 2 2 2 2 2 1 1 2 2 1 2 2 2 2 2 2 2 2 2 2 2 3
5 5 6 7 4 2 0 2 3 4 4 4 3 3 3 2 2 2 3 2 2 2 2 2 2 2 2 2 2 2 2 2 2 2 3 3 2 2 2 2 2 3 3 3
6 6 5 5 4 3 2 3 4 4 4 4 4 4 3 3 3 3 3 2 2 3 2 3 3 3 3 3 3 3 2 2 3 3 2 2 2 2 2 2 2 2 3 4
Wind_Direction
200 208 218 214 222 264 212 200 213 162 158 197 206 204 178 177 188 183 175 169 168 159 148 142 141 132 134 131 120 123 136 133 120 104 97 100 93 97 94 94 90 81 76 75
196 200 247 244 234 205 211 217 208 164 196 226 224 215 188 175 183 185 182 179 172 162 154 147 153 143 155 146 136 129 139 126 118 119 119 122 122 109 106 93 85 81 84 86
206 157 193 223 226 231 226 242 228 233 232 228 221 221 195 176 171 175 187 180 171 165 160 156 157 152 156 154 155 147 146 132 129 135 116 109 102 96 99 104 85 74 96 94
188 166 216 230 252 273 272 262 238 237 248 244 223 225 200 177 165 177 183 183 170 162 155 154 158 160 156 151 140 144 137 136 140 135 131 150 158 156 148 140 132 116 100 99
193 189 221 239 264 294 298 299 261 254 250 257 239 236 197 161 173 179 174 176 172 161 156 156 157 160 158 143 130 142 135 129 125 124 129 146 142 140 133 132 131 116 100 105
172 181 248 267 249 261 271 268 259 249 251 254 228 221 184 160 171 167 166 170 172 164 154 152 151 150 146 129 122 118 119 113 116 126 139 150 140 135 134 133 138 130 119 117
182 177 189 233 246 210 250 265 271 229 217 230 193 181 116 103 105 128 151 162 164 160 154 154 153 153 147 136 135 141 138 137 151 161 158 162 158 165 165 161 148 139 130 122
223 181 171 197 255 270 256 267 286 299 287 261 196 145 111 101 95 108 130 145 152 154 148 147 149 152 151 148 155 163 164 166 173 184 173 166 157 164 151 149 144 149 148 142
302 156 153 187 242 274 286 283 288 292 289 276 173 131 124 119 118 118 125 135 145 154 145 143 145 148 150 157 165 179 180 172 171 181 185 160 156 153 144 147 145 135 144 153
294 269 186 176 231 239 265 291 290 288 306 298 235 155 143 140 134 136 134 130 140 142 142 145 147 147 150 150 158 172 172 169 161 157 170 149 149 146 140 154 159 155 158 142
284 268 216 191 218 248 233 254 274 284 287 298 300 59 79 119 114 117 125 127 131 131 136 139 135 140 136 136 144 162 175 165 162 168 168 158 155 161 163 166 177 177 169 161
282 287 260 216 179 220 268 272 279 276 296 297 299 87 86 102 103 104 115 127 131 128 124 124 127 128 128 136 149 160 162 153 158 167 159 159 154 178 178 175 189 188 180 173
321 283 276 210 164 188 232 252 271 278 280 282 284 139 111 113 116 109 108 117 122 126 125 124 127 137 143 152 160 161 160 147 137 134 147 162 169 181 186 189 179 180 168 163
288 274 277 285 297 273 243 245 255 266 271 277 274 211 203 133 125 116 110 116 123 133 133 133 141 150 152 160 165 166 163 150 150 150 150 159 183 188 184 184 178 183 172 162
256 275 284 283 279 276 273 265 255 255 266 274 283 276 250 7 94 111 120 128 130 142 141 144 152 159 162 167 171 168 166 168 169 165 173 182 184 197 172 170 177 186 189 196
254 277 286 279 268 265 263 262 259 259 265 271 274 285 315 82 87 89 108 117 129 139 142 146 156 163 170 177 182 180 177 180 175 170 179 176 180 182 177 188 200 200 198 206
260 267 281 283 280 273 263 257 252 256 261 276 278 284 5 52 55 73 91 94 95 86 86 126 165 166 178 188 184 180 177 169 175 177 180 179 180 182 190 194 198 204 205 216
268 271 270 278 282 268 276 327 273 262 283 307 319 4 17 52 53 66 82 94 82 71 67 32 290 151 164 181 171 162 159 164 173 181 184 179 180 194 200 193 197 211 215 211
255 267 271 273 276 273 249 216 278 265 266 283 298 358 31 48 106 82 59 56 73 78 71 32 310 316 183 183 181 173 172 171 171 179 195 190 189 199 205 211 210 217 217 217
237 248 257 266 272 277 11 64 358 296 268 37 27 22 20 347 271 104 62 46 48 52 50 28 328 323 289 214 194 188 183 177 187 190 199 199 198 201 215 223 225 220 211 216
225 236 241 256 264 272 48 56 310 268 24 43 18 11 10 2 20 50 59 46 31 34 19 6 339 331 334 311 245 205 199 194 190 186 192 203 207 208 216 222 226 217 217 222
248 250 251 257 260 257 46 21 14 13 25 27 17 17 24 30 35 30 29 12 4 17 3 346 324 316 331 331 307 243 233 227 178 181 190 201 208 216 212 208 218 214 217 219
256 264 283 280 307 57 41 37 23 353 354 14 13 8 24 19 8 360 348 330 340 324 310 298 290 290 304 305 284 267 257 233 202 192 200 215 215 214 207 205 214 219 216 216
287 301 284 277 246 192 353 20 13 357 352 357 359 355 355 344 338 334 318 318 327 321 324 314 301 293 296 289 267 272 272 244 218 203 209 220 217 212 212 212 215 218 223 221
307 309 285 277 284 285 289 8 354 343 342 338 343 340 326 319 312 309 303 304 314 306 293 288 283 283 283 290 282 271 263 251 244 232 224 223 222 209 207 214 219 214 219 211
278 282 278 288 320 308 329 356 335 329 331 328 327 323 323 316 305 299 292 295 294 293 284 273 269 266 264 267 275 276 256 240 250 252 245 234 219 209 202 208 244 248 228 225